Location: Arbon
(43.0005°N, 0.7472°E)
Time: 21:37:20
(UTC+00:00)

Explorer 7 - Pass Details

Date: 05 December 2020
Orbit: 484 x 678 km, 50.3° (Epoch: 25 January)

Event Time Altitude Azimuth Distance (km) Brightness Sun altitude
Rises 23:59:03 0° 244° (WSW) 2,994 - -69.3°
Reaches altitude 10° 00:01:26 10° 246° (WSW) 2,065 - -69.2°
Maximum altitude 00:06:13 74° 332° (NNW) 664 - -69.0°
Drops below altitude 10° 00:10:45 10° 58° (ENE) 1,968 - -68.8°
Sets 00:13:00 0° 60° (ENE) 2,841 - -68.7°
